YGLA

Details ICAO YGLA (GLT)
Name Gladstone
Region Australia
Timezone Australia/Brisbane (UTC+10.0)
Plans Departing 15
Arriving 12
Stats Elevation 64 ft / 20 m (AMSL)
Location -23.869471° 151.224483°
Runways 1
Magnetic Variation 9.522° E
Sunrise 2018-05-25 20:28:47 UTC / 2018-05-26 06:28:47 Local
Sunset 2018-05-26 07:18:18 UTC / 2018-05-26 17:18:18 Local
Advertisement - Login to hide

Runways

ID Width Length Bearing (true) Bearing (mag) Surface Threshold Offset Overrun Length
10 98 ft / 30 m 5,354 ft / 1,632 m 110.20° 100.68° Asphalt 0 ft / 0 m 89 ft / 27 m
28 98 ft / 30 m 5,354 ft / 1,632 m 290.20° 280.68° Asphalt 322 ft / 98 m 194 ft / 59 m

Map

Weather


0- 5 10 15 20 25 30 35+ Temperature / ° C

Clouds and Precipitation
Forecast for 2018-05-25 18:00 UTC. Updated 4 hours ago

Ground ~20,000 ft ~40,000 ft Winds

METAR

YGLA 252100Z AUTO 15011KT 9999 // NCD 19/14 Q1022

TAF

TAF YGLA 251716Z 2518/2606 16008KT 9999 SCT020 FM252300 14014KT 9999 SCT030 FM260200 12018KT 9999 -SHRA SCT035

Frequencies

Unicom 122.40 MHz ACTIVATE LIGHTS ONLY MULT
Tower 118.80 MHz GLADSTONE TWR
Unicom 119.55 MHz BRISBANE CENTRE MULT
Warning: Do not use this data for real-world aviation or navigation. No guarantee of current accuracy is given.